RH
61 53 61 72 82 61 32 28 22 22 22 24 22 17 19 22 22 23 23 32 23 31 30 29 30 29 30 26 24 24 23 22 21 19 20 19 16 15 13 12 12 11 11 12 16 20 22 21 24
66 58 55 74 94 95 72 35 32 25 25 28 25 24 23 22 20 19 21 24 17 22 26 25 24 24 23 20 20 20 19 19 20 18 17 18 16 15 14 12 12 11 12 10 13 12 15 23 25
59 54 45 48 96 100 100 83 62 48 31 31 33 33 31 26 23 22 31 28 21 25 26 22 20 20 19 19 18 18 18 18 18 20 22 24 24 22 18 16 15 14 12 12 11 12 13 13 18
33 43 47 43 42 95 100 99 91 78 58 43 44 46 48 43 26 31 38 37 25 28 32 26 30 31 30 34 34 33 32 32 35 34 30 32 31 28 25 22 19 16 14 12 11 13 17 22 20
25 31 35 48 45 50 72 100 100 100 98 100 100 89 84 67 48 30 31 41 37 38 42 45 49 51 45 46 51 50 46 46 50 46 42 38 37 35 32 27 22 21 18 30 29 28 33 32 23
24 24 29 38 45 77 91 69 88 100 100 100 100 93 96 98 84 50 47 58 51 51 49 58 63 50 57 96 100 91 59 57 58 67 59 55 47 43 40 30 27 23 22 19 27 41 32 21 35
23 27 30 33 61 99 82 76 81 98 100 100 100 100 89 99 100 100 87 85 95 48 41 42 38 52 90 91 79 65 68 86 78 79 90 78 68 53 48 42 33 28 26 24 24 36 29 23 24
34 38 48 63 81 100 91 96 70 68 64 98 100 100 100 100 100 100 100 100 83 58 54 42 40 43 44 66 48 56 52 56 54 53 74 86 81 68 59 50 41 36 30 32 28 30 31 37 38
45 53 63 73 81 98 100 100 100 82 66 59 77 74 71 76 66 57 95 100 100 100 100 74 57 48 43 40 44 50 49 57 51 46 44 58 96 90 68 51 52 46 39 38 40 37 37 47 38
55 88 86 97 97 100 100 100 100 100 100 100 100 100 96 95 96 75 52 88 80 90 100 100 74 69 68 57 48 48 46 75 88 68 92 100 100 99 64 53 50 56 58 48 52 76 69 49 41
61 74 79 92 100 100 100 100 100 100 100 100 100 100 100 100 100 100 86 87 82 98 90 97 100 94 91 80 63 60 74 88 100 82 73 98 100 96 78 77 55 52 52 47 54 62 63 47 57
52 54 64 72 88 91 89 98 100 100 100 100 100 100 100 100 90 83 91 80 83 84 75 75 76 99 100 93 84 69 100 100 100 98 60 48 47 77 100 95 72 62 46 47 41 56 65 45 74
47 55 56 62 73 76 81 97 100 100 100 100 100 100 100 100 100 100 100 100 100 100 100 91 78 64 80 86 85 90 72 100 98 83 64 60 51 61 100 96 84 65 70 46 54 60 61 63 43
45 47 56 59 57 62 57 62 69 74 79 78 74 79 88 93 100 94 89 91 100 100 100 100 91 100 96 85 68 64 67 61 59 64 58 68 58 54 75 84 86 70 78 49 46 51 52 51 56
38 37 44 49 51 56 58 60 63 62 58 54 51 51 49 46 52 60 71 80 80 78 88 100 100 100 90 98 100 92 78 79 93 76 65 74 61 57 96 82 48 48 50 49 42 46 48 41 50
42 40 40 42 51 49 51 56 59 53 48 48 46 44 43 39 36 33 33 37 48 54 62 73 87 100 100 100 100 99 92 94 89 100 100 86 67 60 52 68 56 44 39 39 46 53 37 40 39
41 44 41 43 41 40 45 46 43 39 37 37 37 35 33 32 28 26 25 26 27 28 32 40 50 58 61 75 100 100 100 91 73 69 89 100 78 67 60 55 48 62 60 42 42 50 49 42 38
56 55 51 49 48 43 41 41 40 35 32 28 27 26 25 26 27 25 23 23 21 22 23 23 23 27 38 40 36 51 66 98 100 68 84 100 100 100 99 100 74 56 80 48 46 58 54 62 42
71 62 58 91 81 67 48 61 48 44 34 32 31 26 24 22 21 21 20 21 21 20 19 18 20 21 21 26 29 28 29 32 44 82 42 100 100 100 100 100 100 97 63 55 72 68 57 75 49
75 64 74 66 66 59 64 55 45 36 34 38 32 28 24 23 23 20 18 16 16 15 15 15 16 16 18 18 21 23 26 28 28 36 68 51 100 94 87 100 100 100 100 100 81 80 68 79 56
85 86 75 62 96 85 60 72 54 41 38 34 27 24 19 21 20 18 13 11 10 10 9 10 11 12 13 16 19 18 19 23 24 28 40 55 94 100 98 100 100 100 100 96 99 98 75 82 47
73 76 66 65 72 82 98 63 75 55 52 36 27 29 24 21 13 9 9 9 8 8 6 6 6 6 8 10 12 14 15 20 24 24 31 53 63 100 100 98 100 100 100 100 95 100 87 66 64
84 85 78 77 70 81 100 55 60 67 43 29 30 28 23 13 10 10 7 6 6 6 5 5 5 5 4 5 7 9 10 15 22 22 27 33 47 100 96 85 97 100 100 100 98 93 85 77 55
100 92 94 68 83 88 86 72 76 83 50 39 35 26 15 12 9 7 7 7 6 5 4 4 4 4 4 4 5 6 6 10 15 17 22 31 43 68 93 74 60 71 75 86 90 79 89 83 86
100 100 88 79 86 96 100 82 74 60 42 38 34 22 16 12 9 11 16 13 8 6 6 5 5 4 3 3 3 4 5 7 10 15 19 23 26 86 86 54 54 70 82 82 88 97 100 97 96
99 98 100 95 99 100 100 78 73 51 43 37 28 19 15 16 13 19 15 11 8 7 6 6 5 5 3 3 2 3 4 6 8 10 16 20 39 100 100 93 91 90 99 91 99 100 100 100 100
68 61 74 67 86 99 98 85 65 56 44 34 22 19 16 23 24 20 24 15 10 8 8 7 5 4 3 3 2 2 3 5 7 10 16 25 90 100 100 97 95 100 100 100 100 100 98 100 100
36 58 86 97 97 100 91 70 67 55 40 31 22 17 23 36 35 35 27 19 16 12 13 16 7 4 3 3 2 2 3 5 8 12 24 67 100 100 100 97 100 100 100 100 100 98 94 94 100
95 100 100 100 98 99 77 81 89 55 42 27 22 21 41 57 54 51 36 29 18 13 14 10 7 5 3 2 2 2 3 7 18 34 74 91 99 100 100 100 100 100 100 96 100 95 100 100 96
100 100 100 100 100 100 76 97 89 58 39 27 25 31 58 86 77 62 48 40 29 13 9 6 5 4 3 3 3 3 5 34 48 61 91 97 100 100 100 100 100 100 100 100 95 70 92 100 100
Wind_Speed
46 46 45 42 43 43 51 52 50 46 40 41 55 59 61 61 62 65 63 64 74 73 75 76 78 77 76 74 71 69 68 68 68 65 64 61 60 61 58 57 56 55 55 53 54 51 49 45 46
51 48 48 40 39 46 56 54 51 46 41 43 53 50 52 52 51 50 47 53 59 56 61 64 66 63 61 60 58 56 55 55 54 54 51 51 50 49 46 47 46 43 44 43 45 43 41 41 43
57 53 48 44 41 50 55 56 56 48 44 44 52 49 46 47 47 42 47 54 47 44 47 48 52 50 49 47 46 45 44 42 43 40 39 40 40 41 39 36 36 37 35 37 36 36 36 38 39
59 57 53 52 49 54 59 60 53 45 44 47 47 48 48 49 39 34 41 54 54 47 48 48 47 45 44 42 38 36 37 35 33 33 34 34 35 35 31 28 29 30 32 33 32 32 31 33 33
53 56 55 52 56 56 57 58 58 51 46 48 51 54 51 48 46 40 40 48 48 43 44 43 42 41 38 38 36 34 34 35 35 35 34 35 34 33 33 30 28 29 29 28 28 29 27 30 29
49 51 52 55 56 60 63 61 54 53 50 58 66 62 54 50 47 41 42 50 56 48 45 44 42 42 39 36 36 37 39 39 39 39 38 38 38 37 35 31 26 27 28 28 29 28 29 29 27
49 45 50 51 54 59 61 61 58 53 52 60 61 64 57 54 53 46 45 55 63 54 50 49 46 43 45 44 43 42 43 44 43 43 41 41 43 38 37 37 31 28 28 28 26 26 27 26 24
39 40 46 49 50 56 55 61 62 60 55 57 57 57 61 51 50 52 57 63 64 62 55 56 54 47 48 49 46 43 42 41 41 43 44 42 40 39 39 38 32 28 25 26 26 26 27 25 24
38 40 45 47 46 52 55 58 60 59 61 65 66 65 65 65 60 56 54 68 65 63 64 59 59 55 53 52 52 49 45 43 44 43 42 39 39 39 37 35 31 31 29 27 27 27 27 24 23
36 41 45 49 49 49 54 58 60 60 60 61 62 67 69 69 69 65 62 66 69 68 69 66 63 62 58 58 59 56 51 49 48 43 45 46 46 42 37 37 37 35 31 28 28 25 24 26 23
38 39 42 51 51 51 52 54 57 60 61 64 66 70 72 71 71 72 69 67 72 70 71 72 72 69 67 63 61 60 59 54 49 46 46 45 44 40 39 37 37 34 34 33 32 29 25 24 24
47 46 44 47 47 51 55 59 61 62 63 64 67 69 70 71 72 71 71 69 70 73 72 76 75 75 73 70 64 61 63 60 51 52 48 46 45 45 47 41 38 35 37 38 37 35 32 27 25
51 53 52 50 50 51 52 55 59 63 64 64 65 68 70 73 75 75 72 72 73 73 75 74 76 75 76 74 70 66 64 64 60 57 52 49 47 45 42 38 39 40 40 35 35 35 37 34 26
56 55 59 60 60 60 60 61 63 67 68 68 70 72 74 78 81 81 82 82 80 78 77 79 79 75 74 78 78 73 71 70 67 62 56 53 50 46 46 48 47 45 43 40 39 36 36 39 37
61 57 62 62 63 63 63 67 72 73 74 75 75 76 80 85 85 88 87 89 88 89 89 85 85 83 81 77 81 79 74 71 67 63 61 58 53 51 49 50 45 42 43 44 41 36 27 34 41
69 65 61 64 66 66 67 71 75 78 80 82 81 82 85 89 90 90 92 96 100 98 96 94 93 96 90 80 82 83 79 73 67 69 66 63 57 54 50 51 48 42 40 41 40 41 41 39 39
76 72 63 63 66 68 68 70 74 75 78 80 80 84 89 93 92 93 94 97 100 103 104 101 101 101 104 98 85 86 84 76 72 71 67 65 60 58 56 51 49 44 45 40 42 42 43 43 40
80 74 70 67 67 68 69 68 74 77 75 73 74 80 88 91 91 94 95 98 99 101 105 105 105 105 105 109 104 95 94 85 79 72 71 64 62 60 60 55 52 46 49 45 45 45 45 43 39
72 74 72 72 72 73 71 71 76 80 74 74 73 75 81 84 87 89 89 93 95 99 99 98 102 108 106 112 111 103 97 94 86 85 78 69 69 63 62 61 59 53 50 50 48 49 49 47 45
78 75 72 73 74 74 74 77 84 77 76 78 78 75 73 76 81 84 85 87 90 93 94 93 95 98 102 101 108 111 105 101 91 87 82 69 70 69 64 62 61 59 54 53 52 49 48 46 44
78 80 82 78 77 78 79 77 88 79 79 82 80 75 70 75 77 77 75 74 72 74 75 80 83 84 90 99 105 106 104 102 99 90 87 73 63 67 66 63 59 60 58 55 53 52 49 48 39
91 90 88 82 79 77 83 79 90 85 85 83 79 78 79 74 69 62 57 55 58 63 67 69 72 73 76 84 91 98 98 99 98 92 87 80 57 61 66 66 61 61 62 58 57 56 54 51 49
95 95 87 80 80 80 85 87 83 87 85 81 77 77 76 68 57 53 50 48 49 54 58 58 60 65 67 71 76 85 86 92 96 90 85 81 62 59 69 69 64 59 60 62 62 58 54 49 33
96 89 88 86 82 80 84 90 83 86 86 83 78 75 69 58 51 46 43 41 43 44 48 51 54 57 60 63 68 75 76 81 87 84 79 80 64 59 65 69 66 65 62 61 63 58 59 50 45
98 94 92 88 83 84 87 86 85 82 78 73 74 70 61 53 45 39 41 40 39 37 41 46 49 52 50 53 58 64 66 71 73 73 72 66 58 58 63 53 63 65 66 54 53 55 59 57 50
98 98 94 94 91 78 81 85 78 78 73 71 67 62 50 48 40 35 31 32 35 32 34 39 43 47 46 48 45 49 55 63 65 60 60 54 58 61 49 70 45 59 44 43 48 56 49 49 45
89 86 86 79 71 67 71 71 70 68 68 65 62 53 42 42 37 31 32 26 26 27 23 32 36 40 40 39 32 41 50 56 54 52 57 66 58 57 57 85 80 57 55 51 51 56 55 57 47
60 58 55 56 57 57 59 59 59 61 63 61 56 45 36 36 34 33 32 27 24 24 22 28 32 31 31 30 27 39 48 49 49 69 71 62 60 66 48 79 83 74 54 54 47 39 41 45 50
38 42 38 40 43 48 49 50 55 60 60 58 45 37 31 32 29 32 31 27 27 24 25 27 26 21 21 21 26 38 45 51 81 86 76 63 54 42 48 80 72 66 63 57 44 42 53 54 54
26 25 25 31 43 50 46 44 52 58 57 53 39 32 26 25 28 31 32 27 28 23 25 17 22 18 20 22 31 37 53 87 90 88 76 74 62 58 58 69 64 69 61 54 44 46 49 53 50
Wind_Direction
272 271 271 268 270 271 269 270 271 271 275 272 262 265 269 271 273 275 277 273 268 268 271 271 273 275 276 280 282 281 281 281 283 283 284 286 285 285 285 285 286 285 284 281 283 282 283 284 280
271 276 267 265 275 267 268 269 275 273 270 271 274 276 274 277 277 279 280 274 275 274 273 273 273 274 276 277 279 279 279 280 280 282 284 283 285 288 288 288 287 287 284 280 278 279 277 274 274
266 271 264 264 268 275 269 268 266 268 271 273 275 280 286 283 284 284 278 273 271 269 269 272 273 273 275 275 275 278 280 278 280 283 285 288 289 292 293 291 290 287 282 279 276 273 271 269 269
267 268 266 267 264 265 273 272 273 282 276 269 276 282 282 283 280 276 272 274 276 269 270 271 270 271 273 275 278 279 281 284 287 287 288 293 297 296 296 295 291 284 279 278 272 269 267 269 271
275 269 267 262 258 260 262 273 280 280 283 291 282 272 273 274 278 280 279 281 280 275 269 270 272 271 274 278 281 283 286 288 289 290 291 298 297 296 295 295 293 285 281 278 274 275 276 273 272
277 274 269 263 258 258 258 259 268 278 284 287 279 275 272 279 283 282 279 277 274 268 269 270 270 273 273 273 278 281 284 287 287 288 291 294 297 294 295 295 292 289 286 279 275 275 278 278 276
280 274 267 263 260 257 259 262 262 269 272 271 280 283 283 281 286 281 273 264 269 273 274 272 272 271 273 271 275 279 281 281 285 286 286 288 293 291 291 297 293 289 285 281 280 280 281 276 281
283 271 269 265 263 258 261 261 260 259 263 268 269 269 275 275 275 278 272 270 272 276 273 272 270 270 269 270 275 279 280 278 282 282 280 280 289 289 289 293 290 282 279 283 285 285 282 281 285
284 270 265 266 260 260 260 262 266 265 267 265 267 269 272 272 270 267 268 271 270 270 271 270 270 270 270 268 271 272 278 277 277 279 279 278 278 284 287 292 281 277 278 280 286 284 287 288 286
282 269 266 262 259 259 262 258 263 263 262 264 267 270 269 270 270 266 264 266 267 267 268 269 267 268 268 267 268 269 273 275 275 274 279 281 279 278 283 287 286 273 275 276 280 284 286 288 286
290 280 270 261 260 258 259 264 259 262 264 263 264 265 267 268 270 268 265 263 263 263 265 263 265 265 266 265 264 268 269 269 270 270 272 275 278 273 277 276 280 271 275 277 277 278 285 284 283
288 287 281 275 271 265 261 261 265 264 263 267 267 266 267 267 267 267 267 266 267 268 265 265 263 263 263 264 262 263 267 269 266 266 269 269 271 271 277 273 270 272 278 279 276 273 277 281 274
284 283 282 280 279 275 268 265 265 268 266 266 267 268 265 266 267 267 266 267 265 264 266 265 264 262 261 260 258 259 258 261 263 265 268 268 268 270 274 268 269 272 277 278 277 274 274 274 274
294 284 283 280 279 279 277 275 271 269 270 272 272 271 272 270 266 265 264 262 258 258 260 261 260 259 260 262 261 258 257 259 262 263 265 264 266 266 266 267 269 272 272 272 276 278 274 274 271
305 300 285 281 280 275 275 277 276 274 274 273 273 270 269 269 270 270 268 266 263 260 256 255 257 257 257 256 259 259 258 257 260 260 262 260 262 263 262 266 266 267 266 266 270 277 279 282 267
305 306 293 287 281 278 278 277 276 275 274 274 275 274 273 272 271 268 267 266 265 263 260 258 258 261 256 251 255 256 256 254 255 255 259 258 258 261 261 261 263 267 266 266 267 268 280 287 280
303 305 301 289 284 283 281 277 276 275 274 272 272 272 272 272 272 270 270 268 267 265 264 261 258 258 262 257 249 255 257 254 253 254 256 260 256 258 260 262 261 261 266 269 267 270 276 287 291
305 305 303 297 293 291 289 286 282 279 279 279 278 274 271 271 273 272 272 271 269 266 264 263 262 258 257 260 257 250 255 254 254 250 256 256 257 258 259 262 263 260 263 268 269 270 274 281 291
300 300 300 294 294 294 297 295 291 292 287 289 287 277 276 277 278 276 274 272 271 269 265 262 261 260 256 255 256 255 251 251 251 254 254 254 254 255 256 260 261 261 266 272 273 274 277 279 290
298 297 291 292 291 292 292 296 293 294 295 293 291 289 287 287 284 281 277 274 272 270 269 265 261 258 258 255 254 254 252 251 248 249 251 250 253 255 254 256 259 265 269 267 274 278 282 282 291
295 294 297 293 288 292 293 294 295 299 295 293 295 296 293 293 293 288 284 279 275 271 268 264 261 257 252 252 252 251 251 249 248 244 242 240 245 255 255 254 259 265 270 271 273 280 285 286 292
295 291 294 290 287 289 290 293 297 301 299 299 300 301 302 302 295 288 280 276 272 270 268 264 262 258 252 248 247 249 246 244 245 242 239 237 236 242 254 257 258 262 267 269 272 278 282 292 293
292 293 292 292 286 287 287 295 299 302 300 300 303 306 306 302 296 292 291 283 275 269 269 267 264 262 256 250 245 243 243 241 237 237 234 236 227 227 248 254 256 258 261 266 270 274 282 293 275
287 286 286 289 290 289 288 295 300 300 301 303 307 310 308 303 300 298 294 289 280 275 271 268 264 260 256 251 244 242 240 236 235 233 229 230 228 230 240 253 260 260 263 264 272 275 275 275 285
284 283 283 287 288 289 288 292 299 296 300 304 310 312 310 305 307 303 296 293 286 279 268 267 266 263 258 254 245 238 235 235 231 228 227 221 220 220 243 270 266 264 262 273 278 280 280 281 283
278 279 279 283 284 285 287 293 297 299 303 309 312 311 307 304 308 301 291 286 284 277 268 267 268 267 261 256 245 232 229 226 223 216 212 186 200 212 234 256 268 268 279 287 287 283 281 283 285
276 276 276 279 281 282 286 293 298 303 305 308 312 309 305 305 307 311 311 302 291 284 294 289 278 267 264 255 241 220 217 215 211 196 181 181 196 190 207 247 255 268 273 282 285 278 280 276 273
271 271 273 277 279 285 290 296 299 301 308 311 314 306 306 301 310 319 323 313 314 313 302 277 278 273 268 257 233 209 206 195 190 169 172 185 186 193 196 228 239 249 270 268 268 264 264 266 265
264 267 274 279 284 286 294 301 306 306 311 313 313 306 304 304 312 321 331 335 333 310 290 283 267 257 250 226 205 199 188 172 160 161 162 174 170 182 202 221 233 240 264 266 254 259 262 261 260
238 249 265 282 276 282 295 303 305 307 313 316 314 306 295 309 310 323 327 339 326 297 287 251 242 223 215 196 184 183 167 157 158 160 172 179 176 170 181 222 234 239 247 237 236 235 249 253 258